STARLINK-34029, 63805

Orbit data source: Space-Track

STARLINK-34029, 63805 is a payload satellite owned by SpaceX/Seattle (US) in LEO that was launched on Sun, 04 May 2025 UTC via an FALCON 9 launch vehicle from the Air Force Eastern Test Range (AFETR). Payload-class satellites include a variety of spacecraft equipped with specific instruments for various scientific and technological missions. These include communications satellites like Starlink; space stations such as the ISS; scientific satellites like the Hubble; Earth observation satellites from companies like Planet Labs, Umbra, and HawkEye 360; GPS; miniature CubeSats for education and research; and military/defense satellites.

Loading next visibility...
Identifier
63805, 2025-092B
Orbit
LEO
Last TLE update
8 hours ago
Origin
Manufacturer
SpaceX/Seattle
Mission
Operational spacecraft
Bus & Motor
STARLINK V2MO, Unknown motor
Mass
575 kg wet, ~530 kg dry
Launch date (UTC)
2025-05-04 (2 months ago)
Launch vehicle
FALCON 9
Launch site
Air Force Eastern Test Range (AFETR)
Object type
Payload
Rocket body
Debris
Shape & HBR
Unknown
Radar Cross Section
Large (>1 m²)

Expand to show TLE details & history

TLE from 8 hours ago
0 STARLINK-34029
1 63805U 25092B   25169.91668981 -.00012139  00000-0 -42117-3 0  9997
2 63805  43.0006 222.5780 0001402 269.7195 303.1388 15.28425822  6000
Epoch: 2025-06-18T22:00Z
TLE epoch observation values (Epoch: 2025-06-18T22:00:01.999Z)
Latitude
-21.86984°
Longitude
-169.47848°
Altitude
485.045 km
Speed
7.624 km/s
True Right ascension
04h 31m 41s
True Declination
-21° 44' 47"
Sunlit
Object was in daylight at epoch
Visualization orbit readout
Latitude
-40.98976°
Longitude
-84.67222°
Altitude
492.064 km
Speed
7.62 km/s
Apparent Right ascension
07h 40m 57s
Apparent Declination
-47° 24' 48"
Sunlit
Object is in daylight
Visualization observer readout
Local Sidereal Time
17:00:15
Azimuth
241.919° WSW
Elevation
-60.342°
Doppler factor
1
Orbital elements
Apogee altitude
483.425 km
Perigee altitude
481.502 km
Semi-major axis
6,860.6 km
Eccentricity
0.00014
Inclination
43.0006°
RAAN
222.578°
Arg. of periapsis
269.7195°
True anomaly
Unknown
Mean anomaly
303.1388°
Eccentric anomaly
Unknown
Mean motion
3.81944 °/min
Orbital period
94.25 mins
BSTAR
-0.00042117
Loading maneuver chart data...
Loading SW <> Apogee altitude chart data...
Loading historical data...
Loading historical data...
Loading historical data...
Loading historical data...
Loading historical data...
Loading historical data...
Loading historical data...

STARLINK-34029 Visibility forecast

Observer location: undefined°, undefined°

Span
Click to sort rows by Start time (UTC) header in descending order
Start Az.
Max El. time (UTC)
Max El. Az.
Max El.
End time (UTC)
End Az.
6 mins2025-06-19 06:40:48.986Z206.184° SW2025-06-19 06:43:48.986Z141.421° SSE26.24°2025-06-19 06:46:48.986Z86.993° E
6 mins2025-06-19 08:19:48.986Z260.314° W2025-06-19 08:21:48.986Z283.611° WNW41.659°2025-06-19 08:25:48.986Z70.741° E
6 mins2025-06-19 09:58:48.986Z289.867° WNW2025-06-19 10:01:48.986Z26.711° NE37.049°2025-06-19 10:04:48.986Z79.087° E
6 mins2025-06-19 11:37:48.986Z286.638° WNW2025-06-19 11:40:48.986Z133.146° SE43.552°2025-06-19 11:43:48.986Z112.949° SE
|